DW8690 Weather Reports


Display with metric or nautical units.
time (UTC)temp
F
wind
direction
speed
MPH
gust
MPH
rain 1hr
in
rain 24hr
in
rain mn
in
humidity
%
barometer
mb
20260507033104 63 0 0.0 2.0 0.00 0.09 0.01 51 1013.8
20260507033004 63 0 0.0 2.0 0.00 0.09 0.01 51 1013.8
20260507032803 64 0 0.0 1.0 0.00 0.09 0.01 48 1013.7
20260507032604 64 0 0.0 1.0 0.00 0.09 0.01 45 1013.6
20260507032403 64 0 0.0 1.0 0.00 0.09 0.01 45 1013.6
20260507032306 64 0 0.0 1.0 0.00 0.09 0.01 45 1013.6
20260507032203 64 0 0.0 1.0 0.00 0.09 0.01 45 1013.6
20260507032004 64 0 0.0 1.0 0.00 0.09 0.01 45 1013.5
20260507031904 64 0 0.0 1.0 0.00 0.09 0.01 45 1013.5
20260507031804 64 0 0.0 1.0 0.00 0.09 0.01 46 1013.5
20260507031703 64 0 0.0 1.0 0.00 0.09 0.01 45 1013.5
20260507031603 65 0 0.0 1.0 0.00 0.09 0.01 45 1013.5
20260507031504 65 0 0.0 1.0 0.00 0.09 0.01 44 1013.5
20260507031403 65 0 0.0 1.0 0.00 0.09 0.01 44 1013.5
20260507031303 65 0 0.0 1.0 0.00 0.09 0.01 44 1013.5
20260507031204 65 0 0.0 1.0 0.00 0.09 0.01 44 1013.5
20260507031104 65 0 0.0 1.0 0.00 0.09 0.01 45 1013.4
20260507030903 65 0 0.0 1.0 0.00 0.09 0.01 44 1013.5
20260507030803 66 0 0.0 1.0 0.00 0.09 0.01 44 1013.4
20260507030503 67 0 0.0 1.0 0.00 0.09 0.01 43 1013.4
20260507030404 67 0 0.0 1.0 0.00 0.09 0.01 43 1013.4
20260507030203 67 0 0.0 1.0 0.00 0.09 0.01 43 1013.4
20260507030104 67 0 0.0 1.0 0.00 0.09 0.01 43 1013.4
20260507030004 67 0 0.0 1.0 0.00 0.09 0.01 42 1013.4
20260507025903 67 0 0.0 1.0 0.00 0.09 0.01 41 1013.3
20260507025804 67 0 0.0 1.0 0.00 0.09 0.01 40 1013.3
20260507025703 67 0 0.0 2.0 0.00 0.09 0.01 40 1013.3
20260507025604 68 0 0.0 2.0 0.00 0.09 0.01 39 1013.4
20260507025503 68 0 0.0 2.0 0.00 0.09 0.01 38 1013.3
20260507025403 68 0 0.0 3.0 0.00 0.09 0.01 38 1013.2
20260507025203 69 0 0.0 3.0 0.00 0.09 0.01 35 1013.1
20260507025104 69 0 0.0 3.0 0.00 0.09 0.01 35 1013.2
20260507025003 69 0 0.0 3.0 0.00 0.09 0.01 34 1013.2
20260507024904 69 0 0.0 3.0 0.00 0.09 0.01 34 1013.1
20260507024804 70 0 0.0 4.0 0.00 0.09 0.01 33 1013.1
20260507024703 70 0 0.0 4.0 0.00 0.09 0.01 33 1013.0
20260507024604 70 225 1.0 4.0 0.00 0.09 0.01 33 1013.2
20260507024404 70 225 1.0 4.0 0.00 0.09 0.01 30 1013.1
20260507024304 70 225 2.0 4.0 0.00 0.09 0.01 30 1013.1
20260507024203 70 227 2.0 4.0 0.00 0.09 0.01 30 1013.1
20260507024004 71 224 2.0 4.0 0.00 0.09 0.01 30 1013.2
20260507023903 71 222 2.0 4.0 0.00 0.09 0.01 29 1013.2
20260507023804 71 214 1.0 2.0 0.00 0.09 0.01 29 1013.1
20260507023603 72 183 1.0 2.0 0.00 0.09 0.01 28 1013.2
20260507023504 72 0 0.0 2.0 0.00 0.09 0.01 27 1013.1
20260507023403 72 141 1.0 2.0 0.00 0.09 0.01 26 1013.1
20260507023304 72 0 0.0 2.0 0.00 0.09 0.01 25 1013.1
20260507023204 73 0 0.0 2.0 0.00 0.09 0.01 23 1013.1
20260507023103 73 0 0.0 2.0 0.00 0.09 0.01 23 1013.0
20260507022904 73 0 0.0 3.0 0.00 0.09 0.01 23 1013.1
20260507022803 74 98 1.0 3.0 0.00 0.09 0.01 22 1013.0
20260507022704 74 98 1.0 3.0 0.00 0.09 0.01 22 1013.0
20260507022604 74 95 1.0 4.0 0.00 0.09 0.01 22 1012.9
20260507022503 74 0 0.0 4.0 0.00 0.09 0.01 22 1013.0
20260507022404 74 97 2.0 4.0 0.00 0.09 0.01 21 1012.9
20260507022204 74 97 2.0 4.0 0.00 0.09 0.01 21 1012.9
20260507022103 74 101 2.0 4.0 0.00 0.09 0.01 21 1013.0
20260507021904 75 101 2.0 4.0 0.00 0.09 0.01 20 1012.9
20260507021803 75 104 2.0 4.0 0.00 0.09 0.01 20 1012.9
20260507021704 75 106 2.0 4.0 0.00 0.09 0.01 19 1012.9
20260507021603 75 106 2.0 3.0 0.00 0.09 0.01 20 1012.9
20260507021504 75 107 1.0 3.0 0.00 0.09 0.01 21 1012.9
20260507021404 75 101 1.0 3.0 0.00 0.09 0.01 20 1012.9
20260507021303 75 99 1.0 3.0 0.00 0.09 0.01 20 1013.0
20260507021204 76 95 2.0 3.0 0.00 0.09 0.01 20 1012.9
20260507021103 76 91 2.0 3.0 0.00 0.09 0.01 19 1012.9
20260507021003 76 91 1.0 2.0 0.00 0.09 0.01 20 1013.0
20260507020904 76 91 1.0 2.0 0.00 0.09 0.01 20 1012.9
20260507020803 76 0 0.0 3.0 0.00 0.09 0.01 19 1013.1
20260507020704 76 99 1.0 3.0 0.00 0.09 0.01 17 1012.9
20260507020604 76 104 1.0 3.0 0.00 0.09 0.01 17 1012.9
20260507020504 76 104 1.0 3.0 0.00 0.09 0.01 17 1012.8
20260507020403 76 109 1.0 3.0 0.00 0.09 0.01 17 1012.9
20260507020304 76 114 1.0 3.0 0.00 0.09 0.01 17 1012.9
20260507020203 76 120 1.0 4.0 0.00 0.09 0.01 17 1012.8
20260507020004 76 0 0.0 4.0 0.00 0.09 0.01 17 1012.9
20260507015904 76 127 1.0 4.0 0.00 0.09 0.01 17 1012.9
20260507015704 76 122 1.0 4.0 0.00 0.09 0.01 18 1013.0
20260507015604 76 122 1.0 4.0 0.00 0.09 0.01 18 1012.9
20260507015504 76 126 1.0 4.0 0.00 0.09 0.01 18 1013.0
20260507015306 76 122 1.0 4.0 0.00 0.09 0.01 18 1012.9
20260507015204 76 120 1.0 4.0 0.00 0.09 0.01 18 1013.1
20260507015104 76 118 1.0 4.0 0.00 0.09 0.01 18 1013.0
20260507015004 76 113 1.0 5.0 0.00 0.09 0.01 18 1013.0
20260507014903 76 108 1.0 6.0 0.00 0.09 0.01 18 1012.8
20260507014804 76 102 2.0 7.0 0.00 0.09 0.01 17 1012.9
20260507014703 76 102 1.0 7.0 0.00 0.09 0.01 17 1012.9
20260507014604 76 99 2.0 7.0 0.00 0.09 0.01 17 1012.8
20260507014504 76 100 2.0 7.0 0.00 0.09 0.01 17 1012.9
20260507014404 77 95 1.0 7.0 0.00 0.09 0.01 17 1012.8
20260507014304 77 97 2.0 7.0 0.00 0.09 0.01 16 1012.8
20260507014204 77 97 3.0 7.0 0.00 0.09 0.01 15 1012.9
20260507014104 77 102 3.0 7.0 0.00 0.09 0.01 15 1012.9
20260507013904 77 110 4.0 7.0 0.00 0.09 0.01 14 1012.8
20260507013803 77 116 5.0 7.0 0.00 0.09 0.01 14 1012.8
20260507013704 78 123 4.0 6.0 0.00 0.09 0.01 16 1012.8
20260507013603 78 135 2.0 5.0 0.00 0.09 0.01 16 1012.9
20260507013504 78 139 2.0 5.0 0.00 0.09 0.01 16 1012.9
20260507013403 78 146 2.0 5.0 0.00 0.09 0.01 15 1012.9
20260507013304 78 149 2.0 5.0 0.00 0.09 0.01 15 1012.9
20260507013203 78 146 2.0 4.0 0.00 0.09 0.01 15 1012.8
20260507013004 78 0 0.0 4.0 0.00 0.09 0.01 15 1012.9
20260507012804 78 155 1.0 4.0 0.00 0.09 0.01 15 1012.9
20260507012703 78 150 2.0 4.0 0.00 0.09 0.01 16 1012.9
20260507012603 78 130 1.0 4.0 0.00 0.09 0.01 16 1012.9
20260507012504 78 114 2.0 4.0 0.00 0.09 0.01 16 1012.9
20260507012404 78 98 2.0 7.0 0.00 0.09 0.01 16 1012.8
20260507012306 78 29 2.0 7.0 0.00 0.09 0.01 16 1012.8
20260507012204 78 313 2.0 7.0 0.00 0.09 0.01 16 1012.9
20260507012103 78 359 1.0 7.0 0.00 0.09 0.01 16 1012.9
20260507012004 78 124 1.0 7.0 0.00 0.09 0.01 16 1012.9
20260507011903 78 114 2.0 7.0 0.00 0.09 0.01 16 1012.9
20260507011803 78 99 2.0 7.0 0.00 0.09 0.01 16 1012.8
20260507011603 78 115 2.0 8.0 0.00 0.09 0.01 15 1012.9
20260507011503 78 123 2.0 8.0 0.00 0.09 0.01 16 1012.9
20260507011304 78 126 3.0 8.0 0.00 0.09 0.01 16 1013.0
20260507011203 78 121 4.0 8.0 0.00 0.09 0.01 15 1013.0
20260507011104 78 127 3.0 8.0 0.00 0.09 0.01 14 1012.9
20260507011003 78 127 2.0 8.0 0.00 0.09 0.01 14 1012.9
20260507010904 78 129 3.0 8.0 0.00 0.09 0.01 13 1013.0
20260507010804 79 135 6.0 8.0 0.00 0.09 0.01 12 1013.0
20260507010604 79 0 0.0 4.0 0.00 0.09 0.01 14 1013.0
20260507010503 79 0 0.0 4.0 0.00 0.09 0.01 14 1013.0
20260507010403 79 0 0.0 4.0 0.00 0.09 0.01 14 1013.0
20260507010304 79 0 0.0 4.0 0.00 0.09 0.01 14 1013.0
20260507010203 79 0 0.0 4.0 0.00 0.09 0.01 14 1012.9
20260507010104 79 0 0.0 4.0 0.00 0.09 0.01 14 1013.0
20260507010004 79 183 1.0 4.0 0.00 0.09 0.01 13 1013.1
20260507005804 79 183 2.0 4.0 0.00 0.09 0.01 14 1013.1
20260507005703 79 188 1.0 4.0 0.00 0.09 0.01 14 1013.0
20260507005603 79 176 1.0 4.0 0.00 0.09 0.01 14 1012.9
20260507005504 79 176 1.0 4.0 0.00 0.09 0.01 13 1013.0
20260507005404 78 167 1.0 4.0 0.00 0.09 0.01 14 1013.0
20260507005103 78 123 2.0 8.0 0.00 0.09 0.01 14 1013.0
20260507005004 78 114 1.0 8.0 0.00 0.09 0.01 14 1013.0
20260507004903 78 116 1.0 8.0 0.00 0.09 0.01 14 1013.1
20260507004803 78 119 1.0 8.0 0.00 0.09 0.01 14 1013.1
20260507004704 78 120 1.0 8.0 0.00 0.09 0.01 15 1013.1
20260507004403 78 111 3.0 8.0 0.00 0.09 0.01 14 1013.0
20260507004304 79 112 6.0 8.0 0.00 0.09 0.01 14 1013.1
20260507004203 79 109 3.0 7.0 0.00 0.09 0.01 15 1013.1
20260507004104 79 114 3.0 5.0 0.00 0.09 0.01 15 1013.1
20260507004004 79 129 3.0 5.0 0.00 0.09 0.01 14 1013.1
20260507003904 79 136 2.0 5.0 0.00 0.09 0.01 14 1013.1
20260507003804 79 138 1.0 5.0 0.00 0.09 0.01 14 1013.1
20260507003704 79 143 1.0 5.0 0.00 0.09 0.01 15 1013.1
20260507003503 79 155 2.0 5.0 0.00 0.09 0.01 13 1012.9
20260507003304 78 166 2.0 5.0 0.00 0.09 0.01 14 1012.9
20260507003204 78 169 1.0 5.0 0.00 0.09 0.01 13 1012.9
20260507003103 78 169 1.0 5.0 0.00 0.09 0.01 13 1013.0
20260507003004 78 153 1.0 5.0 0.00 0.09 0.01 13 1012.9
20260507002903 78 140 3.0 5.0 0.00 0.09 0.01 13 1013.0
20260507002804 78 135 1.0 5.0 0.00 0.09 0.01 14 1012.9
20260507002705 78 0 0.0 5.0 0.00 0.09 0.01 14 1012.9
20260507002603 78 0 0.0 5.0 0.00 0.09 0.01 14 1013.1
20260507002503 78 131 2.0 5.0 0.00 0.09 0.01 14 1013.0
20260507002404 78 132 2.0 7.0 0.00 0.09 0.01 15 1012.9
20260507002306 78 127 1.0 8.0 0.00 0.09 0.01 14 1013.0
20260507002204 78 121 4.0 11.0 0.00 0.09 0.01 15 1013.0
20260507002103 78 116 4.0 11.0 0.00 0.09 0.01 15 1013.0
20260507002004 78 111 4.0 11.0 0.00 0.09 0.01 15 1012.9
20260507001904 78 110 4.0 11.0 0.00 0.09 0.01 15 1013.0
20260507001803 78 110 4.0 11.0 0.00 0.09 0.01 15 1012.9
20260507001604 78 111 4.0 11.0 0.00 0.09 0.01 15 1012.9
20260507001503 78 112 4.0 11.0 0.00 0.09 0.01 15 1013.0
20260507001404 79 112 4.0 11.0 0.00 0.09 0.01 14 1013.0
20260507001203 79 110 7.0 9.0 0.00 0.09 0.01 15 1012.9
20260507001104 79 112 4.0 7.0 0.00 0.09 0.01 16 1013.1
20260507001003 79 116 4.0 7.0 0.00 0.09 0.01 16 1013.0
20260507000904 79 112 2.0 7.0 0.00 0.09 0.01 16 1012.9
20260507000803 79 107 2.0 7.0 0.00 0.09 0.01 16 1013.0
20260507000704 79 104 2.0 7.0 0.00 0.09 0.01 16 1013.0
20260507000604 79 102 2.0 7.0 0.00 0.09 0.01 15 1013.0
20260507000405 79 94 3.0 7.0 0.00 0.09 0.01 15 1013.0
20260507000306 79 100 4.0 7.0 0.00 0.09 0.01 15 1013.0
20260507000205 79 125 3.0 7.0 0.00 0.09 0.01 15 1013.1
20260507000004 79 173 1.0 6.0 0.00 0.09 0.01 14 1013.0
20260506235903 79 0 0.0 6.0 0.00 0.09 0.01 14 1013.0
20260506235804 78 0 0.0 6.0 0.00 0.09 0.01 14 1013.0
20260506235703 78 178 2.0 6.0 0.00 0.09 0.01 14 1013.0
20260506235604 78 172 2.0 6.0 0.00 0.09 0.01 15 1013.1
20260506235504 78 166 2.0 6.0 0.00 0.09 0.01 14 1012.9
20260506235403 78 151 1.0 9.0 0.00 0.09 0.01 14 1013.0
20260506235306 78 139 2.0 9.0 0.00 0.09 0.01 14 1013.0
20260506235203 78 122 2.0 9.0 0.00 0.09 0.01 13 1013.1
20260506235004 78 94 2.0 9.0 0.00 0.09 0.01 14 1013.1
20260506234904 78 92 2.0 9.0 0.00 0.09 0.01 14 1013.1
20260506234804 78 79 2.0 12.0 0.00 0.09 0.01 15 1013.1
20260506234703 78 77 1.0 12.0 0.00 0.09 0.01 14 1013.1
20260506234604 78 76 2.0 12.0 0.00 0.09 0.01 14 1013.2
20260506234503 78 77 2.0 12.0 0.00 0.09 0.01 14 1013.1
20260506234404 78 78 2.0 12.0 0.00 0.09 0.01 15 1013.3
20260506234304 78 79 2.0 12.0 0.00 0.09 0.01 14 1013.2
20260506234204 78 76 3.0 12.0 0.00 0.09 0.01 14 1013.1
20260506234104 78 72 4.0 12.0 0.00 0.09 0.01 14 1013.2
20260506234003 78 65 5.0 12.0 0.00 0.09 0.01 15 1013.2
20260506233904 78 60 7.0 12.0 0.00 0.09 0.01 15 1013.2
20260506233804 78 61 8.0 12.0 0.00 0.09 0.01 15 1013.1
20260506233704 78 58 2.0 9.0 0.00 0.09 0.01 15 1013.1
20260506233603 79 49 5.0 9.0 0.00 0.09 0.01 14 1013.2
20260506233504 79 41 4.0 9.0 0.00 0.09 0.01 15 1013.2
20260506233303 79 27 1.0 9.0 0.00 0.09 0.01 13 1013.3
20260506233204 79 29 5.0 9.0 0.00 0.09 0.01 14 1013.3
20260506233103 79 25 5.0 9.0 0.00 0.09 0.01 15 1013.3
20260506233004 79 17 5.0 9.0 0.00 0.09 0.01 15 1013.3
20260506232903 79 10 2.0 9.0 0.00 0.09 0.01 13 1013.4
20260506232804 79 15 3.0 9.0 0.00 0.09 0.01 13 1013.3
20260506232704 79 15 2.0 9.0 0.00 0.09 0.01 13 1013.4
20260506232604 79 0 0.0 9.0 0.00 0.09 0.01 13 1013.4
20260506232504 79 29 1.0 9.0 0.00 0.09 0.01 12 1013.3
20260506232403 79 33 3.0 9.0 0.00 0.09 0.01 12 1013.3
20260506232306 79 30 4.0 8.0 0.00 0.09 0.01 14 1013.4
20260506232204 79 28 2.0 7.0 0.00 0.09 0.01 13 1013.3
20260506232103 79 34 2.0 7.0 0.00 0.09 0.01 13 1013.4
20260506232004 79 24 1.0 7.0 0.00 0.09 0.01 12 1013.3
20260506231903 79 28 2.0 7.0 0.00 0.09 0.01 13 1013.4
20260506231804 79 28 2.0 7.0 0.00 0.09 0.01 13 1013.4
20260506231703 79 35 2.0 7.0 0.00 0.09 0.01 15 1013.4
20260506231604 78 35 4.0 7.0 0.00 0.09 0.01 14 1013.4
20260506231504 78 30 4.0 7.0 0.00 0.09 0.01 14 1013.4
20260506231403 78 44 4.0 8.0 0.00 0.09 0.01 14 1013.5
20260506231304 78 58 1.0 8.0 0.00 0.09 0.01 13 1013.5
20260506231204 78 52 1.0 8.0 0.00 0.09 0.01 13 1013.5
20260506231103 78 46 2.0 8.0 0.00 0.09 0.01 14 1013.6
20260506231004 78 54 3.0 8.0 0.00 0.09 0.01 14 1013.5
20260506230903 78 0 0.0 8.0 0.00 0.09 0.01 14 1013.6
20260506230804 78 46 2.0 8.0 0.00 0.09 0.01 14 1013.6
20260506230603 78 37 3.0 8.0 0.00 0.09 0.01 13 1013.6
20260506230504 78 32 3.0 8.0 0.00 0.09 0.01 15 1013.7
20260506230404 78 30 2.0 8.0 0.00 0.09 0.01 16 1013.7
20260506230303 78 28 3.0 8.0 0.00 0.09 0.01 15 1013.8
20260506230204 78 27 4.0 8.0 0.00 0.09 0.01 14 1013.8
20260506230103 78 26 4.0 8.0 0.00 0.09 0.01 15 1013.7
20260506230004 78 29 4.0 8.0 0.00 0.09 0.01 14 1013.8
20260506225903 78 22 4.0 8.0 0.00 0.09 0.01 14 1013.8
20260506225804 78 32 5.0 11.0 0.00 0.09 0.01 13 1013.9
20260506225703 78 31 4.0 11.0 0.00 0.09 0.01 15 1013.8
20260506225604 78 18 4.0 11.0 0.00 0.09 0.01 14 1013.8
20260506225503 78 37 2.0 11.0 0.00 0.09 0.01 14 1013.8
20260506225404 78 0 0.0 11.0 0.00 0.09 0.01 13 1013.8
20260506225305 78 26 1.0 11.0 0.00 0.09 0.01 14 1013.7
20260506225204 78 18 1.0 11.0 0.00 0.09 0.01 13 1013.8
20260506225104 78 16 2.0 11.0 0.00 0.09 0.01 13 1013.8
20260506225003 78 9 2.0 11.0 0.00 0.09 0.01 14 1013.9
20260506224904 78 13 4.0 11.0 0.00 0.09 0.01 13 1013.9
20260506224804 78 19 7.0 10.0 0.00 0.09 0.01 15 1013.7
20260506224604 78 108 3.0 8.0 0.00 0.09 0.01 16 1013.9
20260506224503 78 106 3.0 8.0 0.00 0.09 0.01 16 1013.8
20260506224304 78 76 1.0 8.0 0.00 0.09 0.01 15 1013.7
20260506224204 77 67 1.0 8.0 0.00 0.09 0.01 14 1013.7
20260506224104 77 69 2.0 10.0 0.00 0.09 0.01 14 1013.7
20260506224003 77 74 2.0 10.0 0.00 0.09 0.01 14 1013.7
20260506223904 77 72 2.0 10.0 0.00 0.09 0.01 13 1013.7
20260506223803 77 70 4.0 10.0 0.00 0.09 0.01 13 1013.8
20260506223704 78 73 3.0 10.0 0.00 0.09 0.01 13 1013.8
20260506223503 78 68 5.0 10.0 0.00 0.09 0.01 14 1013.8
20260506223404 78 68 4.0 10.0 0.00 0.09 0.01 16 1013.8
20260506223303 78 67 4.0 10.0 0.00 0.09 0.01 14 1013.9
20260506223203 78 69 6.0 10.0 0.00 0.09 0.01 14 1013.8
20260506223105 78 58 7.0 10.0 0.00 0.09 0.01 15 1013.8
20260506223003 78 32 7.0 10.0 0.00 0.09 0.01 15 1013.9
20260506222903 78 3 6.0 8.0 0.00 0.09 0.01 17 1013.9
20260506222804 78 347 4.0 6.0 0.00 0.09 0.01 15 1013.9
20260506222703 78 331 3.0 6.0 0.00 0.09 0.01 17 1013.9
20260506222604 78 325 1.0 6.0 0.00 0.09 0.01 17 1013.9
20260506222503 78 332 2.0 6.0 0.00 0.09 0.01 17 1013.9
20260506222404 78 341 4.0 6.0 0.00 0.09 0.01 16 1013.9
20260506222306 78 344 3.0 7.0 0.00 0.09 0.01 18 1014.0
20260506222104 78 353 2.0 8.0 0.00 0.09 0.01 18 1013.9
20260506222003 78 350 2.0 8.0 0.00 0.09 0.01 16 1014.0
20260506221904 78 356 2.0 8.0 0.00 0.09 0.01 15 1014.0
20260506221804 78 359 1.0 8.0 0.00 0.09 0.01 15 1014.0
20260506221703 78 4 1.0 8.0 0.00 0.09 0.01 15 1014.0
20260506221604 78 1 3.0 8.0 0.00 0.09 0.01 15 1014.1
20260506221403 78 8 3.0 8.0 0.00 0.09 0.01 15 1014.1
20260506221304 78 9 4.0 8.0 0.00 0.09 0.01 15 1014.1
20260506221203 78 13 4.0 8.0 0.00 0.09 0.01 16 1014.2
20260506221104 78 27 3.0 8.0 0.00 0.09 0.01 17 1014.0
20260506221004 78 44 3.0 8.0 0.00 0.09 0.01 17 1014.2
20260506220903 77 52 2.0 8.0 0.00 0.09 0.01 17 1014.1
20260506220804 77 55 4.0 9.0 0.00 0.09 0.01 17 1014.0
20260506220703 77 58 2.0 9.0 0.00 0.09 0.01 19 1014.2
20260506220403 77 72 2.0 9.0 0.00 0.09 0.01 21 1014.1
20260506220304 77 77 2.0 9.0 0.00 0.09 0.01 20 1014.1
20260506220103 76 79 3.0 9.0 0.00 0.09 0.01 20 1014.0
20260506220004 76 77 2.0 9.0 0.00 0.09 0.01 20 1014.1
20260506215903 76 75 4.0 9.0 0.00 0.09 0.01 18 1014.2
20260506215804 76 74 5.0 10.0 0.00 0.09 0.01 21 1014.1
20260506215704 76 70 3.0 10.0 0.00 0.09 0.01 19 1014.1
20260506215504 76 69 3.0 10.0 0.00 0.09 0.01 20 1014.2
20260506215403 76 69 4.0 10.0 0.00 0.09 0.01 19 1014.2
20260506215306 76 66 4.0 10.0 0.00 0.09 0.01 19 1014.2
20260506215203 76 70 2.0 10.0 0.00 0.09 0.01 18 1014.3
20260506215004 76 68 4.0 10.0 0.00 0.09 0.01 19 1014.3
20260506214903 76 74 2.0 10.0 0.00 0.09 0.01 18 1014.4
20260506214804 76 82 5.0 12.0 0.00 0.09 0.01 19 1014.4
20260506214703 76 88 5.0 12.0 0.00 0.09 0.01 20 1014.1
20260506214604 76 92 4.0 12.0 0.00 0.09 0.01 19 1014.3
20260506214503 76 80 4.0 14.0 0.00 0.09 0.01 19 1014.2
20260506214404 76 82 3.0 14.0 0.00 0.09 0.01 21 1014.4
20260506214304 76 81 2.0 14.0 0.00 0.09 0.01 20 1014.4
20260506214203 76 80 2.0 14.0 0.00 0.09 0.01 19 1014.4
20260506213904 76 78 8.0 14.0 0.00 0.09 0.01 20 1014.4
20260506213603 76 68 8.0 14.0 0.00 0.09 0.01 20 1014.4
20260506213504 76 78 7.0 11.0 0.00 0.09 0.01 20 1014.4
20260506213403 76 77 7.0 11.0 0.00 0.09 0.01 22 1014.5
20260506213304 76 81 7.0 11.0 0.00 0.09 0.01 20 1014.4
20260506213204 76 82 8.0 11.0 0.00 0.09 0.01 21 1014.5
20260506213103 76 81 4.0 11.0 0.00 0.09 0.01 21 1014.6
20260506213004 76 80 4.0 11.0 0.00 0.09 0.01 21 1014.5
20260506212903 76 0 0.0 11.0 0.00 0.09 0.01 21 1014.4
20260506212804 76 0 0.0 11.0 0.00 0.09 0.01 21 1014.4
20260506212703 75 77 1.0 11.0 0.00 0.09 0.01 20 1014.4
20260506212504 76 71 5.0 11.0 0.00 0.09 0.01 21 1014.5
20260506212403 75 69 7.0 11.0 0.00 0.09 0.01 22 1014.5
20260506212306 75 68 6.0 11.0 0.00 0.09 0.01 24 1014.5
20260506212204 75 67 7.0 11.0 0.00 0.09 0.01 23 1014.6
20260506212104 75 69 3.0 11.0 0.00 0.09 0.01 23 1014.5
20260506212004 75 68 1.0 11.0 0.00 0.09 0.01 22 1014.6
20260506211903 75 70 2.0 11.0 0.00 0.09 0.01 21 1014.6
20260506211804 75 73 4.0 11.0 0.00 0.09 0.01 20 1014.5
20260506211704 75 72 6.0 11.0 0.00 0.09 0.01 22 1014.6
20260506211604 75 69 6.0 11.0 0.00 0.09 0.01 19 1014.6
20260506211505 75 74 6.0 11.0 0.00 0.09 0.01 19 1014.7
20260506211403 75 79 7.0 11.0 0.00 0.09 0.01 19 1014.6
20260506211103 75 84 4.0 11.0 0.00 0.09 0.01 21 1014.7
20260506211004 75 85 4.0 11.0 0.00 0.09 0.01 22 1014.6
20260506210903 75 87 5.0 13.0 0.00 0.09 0.01 21 1014.7
20260506210804 75 81 4.0 13.0 0.00 0.09 0.01 25 1014.7
20260506210704 75 84 6.0 13.0 0.00 0.09 0.01 24 1014.8
20260506210603 75 87 4.0 13.0 0.00 0.09 0.01 23 1014.7
20260506210504 75 78 5.0 13.0 0.00 0.09 0.01 22 1014.7
20260506210304 75 67 8.0 13.0 0.00 0.09 0.01 22 1014.7
20260506210203 75 58 8.0 13.0 0.00 0.09 0.01 24 1014.8
20260506210104 75 54 8.0 13.0 0.00 0.09 0.01 23 1014.7
20260506210004 75 48 9.0 13.0 0.00 0.09 0.01 23 1014.7
20260506205904 75 42 11.0 13.0 0.00 0.09 0.01 24 1014.7
20260506205703 75 30 6.0 12.0 0.00 0.09 0.01 25 1014.7
20260506205603 74 31 4.0 14.0 0.00 0.09 0.01 26 1014.7
20260506205403 74 40 3.0 15.0 0.00 0.09 0.01 24 1014.7
20260506205306 74 42 6.0 15.0 0.00 0.09 0.01 24 1014.7
20260506205204 74 48 3.0 15.0 0.00 0.09 0.01 23 1014.9
20260506205104 74 51 2.0 15.0 0.00 0.09 0.01 24 1014.7
20260506205004 74 52 2.0 15.0 0.00 0.09 0.01 23 1014.8
20260506204903 74 52 5.0 15.0 0.00 0.09 0.01 24 1014.8
20260506204804 75 60 8.0 15.0 0.00 0.09 0.01 23 1014.8
20260506204703 75 62 8.0 15.0 0.00 0.09 0.01 25 1014.8
20260506204603 75 61 4.0 15.0 0.00 0.09 0.01 24 1014.8
20260506204504 75 56 8.0 15.0 0.00 0.09 0.01 27 1014.7
20260506204403 75 62 6.0 12.0 0.00 0.09 0.01 26 1014.9
20260506204304 75 54 4.0 12.0 0.00 0.09 0.01 29 1014.8
20260506204203 74 54 5.0 11.0 0.00 0.09 0.01 28 1014.9
20260506204003 74 47 1.0 11.0 0.00 0.09 0.01 26 1014.8
20260506203904 74 44 2.0 11.0 0.00 0.09 0.01 27 1014.8
20260506203804 74 33 4.0 11.0 0.00 0.09 0.01 27 1014.9
20260506203604 74 36 3.0 11.0 0.00 0.09 0.01 26 1014.8
20260506203503 74 44 2.0 11.0 0.00 0.09 0.01 26 1014.8
20260506203403 74 41 2.0 11.0 0.00 0.09 0.01 25 1014.7
20260506203304 74 41 7.0 11.0 0.00 0.09 0.01 25 1014.8
20260506203203 74 46 4.0 11.0 0.00 0.09 0.01 26 1014.8
20260506203104 74 42 4.0 11.0 0.00 0.09 0.01 29 1014.8
20260506203003 74 46 4.0 11.0 0.00 0.09 0.01 27 1014.9
20260506202904 74 56 5.0 11.0 0.00 0.09 0.01 28 1014.8
20260506202804 73 65 4.0 11.0 0.00 0.09 0.01 27 1014.9
20260506202706 73 68 6.0 11.0 0.00 0.09 0.01 28 1014.8
20260506202604 73 77 6.0 11.0 0.00 0.09 0.01 29 1014.9
20260506202504 73 75 3.0 8.0 0.00 0.09 0.01 27 1014.9
20260506202404 73 70 4.0 8.0 0.00 0.09 0.01 27 1014.8
20260506202306 73 73 2.0 8.0 0.00 0.09 0.01 27 1014.9
20260506202104 73 57 2.0 10.0 0.00 0.09 0.01 28 1014.9
20260506201803 73 53 4.0 10.0 0.00 0.09 0.01 29 1015.0
20260506201704 73 50 4.0 10.0 0.00 0.09 0.01 27 1015.0
20260506201503 73 45 2.0 10.0 0.00 0.09 0.01 28 1015.0
20260506201404 73 46 4.0 10.0 0.00 0.09 0.01 27 1014.9
20260506201304 73 46 2.0 10.0 0.00 0.09 0.01 26 1015.0
20260506201204 73 48 4.0 10.0 0.00 0.09 0.01 28 1014.9
20260506201004 73 49 6.0 10.0 0.00 0.09 0.01 29 1015.0
20260506200903 73 47 5.0 10.0 0.00 0.09 0.01 29 1014.9
20260506200703 73 54 3.0 10.0 0.00 0.09 0.01 29 1014.9
20260506200604 73 53 3.0 10.0 0.00 0.09 0.01 29 1015.0
20260506200504 73 51 3.0 10.0 0.00 0.09 0.01 29 1014.9
20260506200403 73 46 3.0 10.0 0.00 0.09 0.01 29 1014.9
20260506200203 73 36 3.0 10.0 0.00 0.09 0.01 29 1015.0
20260506200004 73 4 5.0 10.0 0.00 0.09 0.01 29 1015.0
20260506195904 73 327 7.0 9.0 0.00 0.09 0.01 29 1015.0
20260506195804 73 301 4.0 7.0 0.00 0.09 0.01 29 1014.9
20260506195704 73 297 2.0 4.0 0.00 0.09 0.01 30 1015.0
20260506195605 73 294 1.0 4.0 0.00 0.09 0.01 33 1014.9
20260506195503 73 297 1.0 4.0 0.00 0.09 0.01 33 1015.0
20260506195306 73 287 1.0 4.0 0.00 0.09 0.01 33 1015.0
20260506195203 73 303 1.0 4.0 0.00 0.09 0.01 33 1015.0
20260506195104 73 342 1.0 5.0 0.00 0.09 0.01 33 1015.1
20260506195004 73 34 1.0 7.0 0.00 0.09 0.01 33 1015.0
20260506194904 73 51 1.0 10.0 0.00 0.09 0.01 33 1014.9
20260506194803 73 73 2.0 10.0 0.00 0.09 0.01 34 1015.1
20260506194704 72 76 2.0 10.0 0.00 0.09 0.01 34 1015.1
20260506194503 72 76 1.0 10.0 0.00 0.09 0.01 33 1015.1
20260506194404 72 78 1.0 10.0 0.00 0.09 0.01 32 1015.2
20260506194303 72 78 2.0 10.0 0.00 0.09 0.01 32 1015.2
20260506194204 72 81 2.0 10.0 0.00 0.09 0.01 34 1015.1
20260506194103 72 82 3.0 10.0 0.00 0.09 0.01 35 1015.2
20260506194004 72 83 6.0 10.0 0.00 0.09 0.01 33 1015.3
20260506193803 72 91 5.0 9.0 0.00 0.09 0.01 34 1015.2
20260506193704 72 88 5.0 8.0 0.00 0.09 0.01 33 1015.3
20260506193603 72 88 2.0 7.0 0.00 0.09 0.01 35 1015.3
20260506193504 72 85 2.0 7.0 0.00 0.09 0.01 35 1015.2
20260506193403 72 75 2.0 8.0 0.00 0.09 0.01 35 1015.3
20260506193304 72 76 2.0 8.0 0.00 0.09 0.01 35 1015.3
20260506193203 72 68 2.0 8.0 0.00 0.09 0.01 35 1015.4
20260506193105 72 66 1.0 8.0 0.00 0.09 0.01 34 1015.2
20260506193003 72 0 0.0 8.0 0.00 0.09 0.01 34 1015.3
20260506192904 72 55 2.0 8.0 0.00 0.09 0.01 33 1015.4
20260506192604 72 21 3.0 8.0 0.00 0.09 0.01 32 1015.3
20260506192504 72 9 3.0 8.0 0.00 0.09 0.01 34 1015.4
20260506192404 72 20 4.0 10.0 0.00 0.09 0.01 35 1015.3
20260506192305 72 13 4.0 13.0 0.00 0.09 0.01 36 1015.4
20260506192104 72 351 3.0 13.0 0.00 0.09 0.01 37 1015.4
20260506192003 72 340 3.0 13.0 0.00 0.09 0.01 37 1015.4
20260506191804 72 343 3.0 14.0 0.00 0.09 0.01 37 1015.4
20260506191703 72 333 3.0 14.0 0.00 0.09 0.01 37 1015.5
20260506191604 72 329 5.0 14.0 0.00 0.09 0.01 34 1015.4
20260506191503 72 341 4.0 14.0 0.00 0.09 0.01 37 1015.5
20260506191303 71 315 5.0 14.0 0.00 0.09 0.01 38 1015.5
20260506191204 71 315 2.0 14.0 0.00 0.09 0.01 36 1015.4
20260506191104 71 319 2.0 14.0 0.00 0.09 0.01 37 1015.4
20260506191003 71 322 4.0 14.0 0.00 0.09 0.01 36 1015.4
20260506190904 71 324 4.0 14.0 0.00 0.09 0.01 35 1015.5
20260506190803 71 324 4.0 9.0 0.00 0.09 0.01 37 1015.4
20260506190704 71 0 0.0 9.0 0.00 0.09 0.01 35 1015.5
20260506190503 71 325 4.0 9.0 0.00 0.09 0.01 36 1015.4
20260506190404 71 321 5.0 9.0 0.00 0.09 0.01 36 1015.4
20260506190303 71 322 5.0 9.0 0.00 0.09 0.01 36 1015.5
20260506190204 71 326 5.0 9.0 0.00 0.09 0.01 36 1015.5
20260506190103 71 332 5.0 9.0 0.00 0.09 0.01 36 1015.5
20260506190005 71 337 4.0 9.0 0.00 0.09 0.01 37 1015.6
20260506185704 71 335 3.0 8.0 0.00 0.09 0.01 37 1015.5
20260506185603 71 341 4.0 8.0 0.00 0.09 0.01 37 1015.5
20260506185504 71 352 4.0 8.0 0.00 0.09 0.01 38 1015.6
20260506185403 71 3 2.0 8.0 0.00 0.09 0.01 40 1015.5
20260506185306 71 5 2.0 10.0 0.00 0.09 0.01 39 1015.6
20260506185204 71 4 2.0 10.0 0.00 0.09 0.01 37 1015.6
20260506185003 71 10 1.0 10.0 0.00 0.09 0.01 36 1015.6
20260506184904 71 18 4.0 10.0 0.00 0.09 0.01 34 1015.6
20260506184804 71 12 3.0 11.0 0.00 0.09 0.01 36 1015.6
20260506184704 71 11 3.0 11.0 0.00 0.09 0.01 37 1015.5
20260506184604 71 12 3.0 11.0 0.00 0.09 0.01 37 1015.7
20260506184503 71 11 3.0 11.0 0.00 0.09 0.01 37 1015.6
20260506184404 71 19 4.0 11.0 0.00 0.09 0.01 37 1015.7
20260506184303 71 0 0.0 11.0 0.00 0.09 0.01 36 1015.6
20260506184204 71 42 1.0 11.0 0.00 0.09 0.01 36 1015.6
20260506184003 71 58 3.0 11.0 0.00 0.09 0.01 37 1015.7
20260506183904 71 58 5.0 11.0 0.00 0.09 0.01 36 1015.6
20260506183704 71 97 1.0 6.0 0.00 0.09 0.01 39 1015.5
20260506183604 71 0 0.0 6.0 0.00 0.09 0.01 38 1015.7
20260506183504 71 97 2.0 6.0 0.00 0.09 0.01 38 1015.6
20260506183403 71 99 1.0 6.0 0.00 0.09 0.01 39 1015.6
20260506183304 71 97 2.0 6.0 0.00 0.09 0.01 39 1015.5
20260506183203 71 97 2.0 6.0 0.00 0.09 0.01 41 1015.6
20260506183104 71 96 2.0 6.0 0.00 0.09 0.01 42 1015.5
20260506183004 71 100 2.0 6.0 0.00 0.09 0.01 42 1015.5
20260506182904 71 91 4.0 6.0 0.00 0.09 0.01 43 1015.5
20260506182604 71 104 2.0 5.0 0.00 0.09 0.01 42 1015.5
20260506182503 71 112 2.0 5.0 0.00 0.09 0.01 42 1015.6
20260506182306 70 118 2.0 6.0 0.00 0.09 0.01 45 1015.5
20260506182104 70 156 2.0 6.0 0.00 0.09 0.01 45 1015.5
20260506182004 69 168 2.0 6.0 0.00 0.09 0.01 46 1015.7
20260506181904 69 189 1.0 6.0 0.00 0.09 0.01 46 1015.6
20260506181803 69 216 1.0 6.0 0.00 0.09 0.01 46 1015.6
20260506181703 69 232 1.0 6.0 0.00 0.09 0.01 46 1015.6
20260506181604 69 240 1.0 6.0 0.00 0.09 0.01 46 1015.6
20260506181503 68 249 1.0 6.0 0.00 0.09 0.01 46 1015.5
20260506181404 68 237 2.0 6.0 0.00 0.09 0.01 45 1015.7
20260506181303 68 223 2.0 6.0 0.00 0.09 0.01 45 1015.6
20260506181204 68 217 4.0 5.0 0.00 0.09 0.01 43 1015.6
20260506181104 68 189 2.0 4.0 0.00 0.09 0.01 44 1015.6
20260506181003 68 157 2.0 4.0 0.00 0.09 0.01 44 1015.6
20260506180904 68 129 2.0 6.0 0.00 0.09 0.01 43 1015.7
20260506180704 68 0 0.0 6.0 0.00 0.09 0.01 45 1015.6
20260506180604 68 105 1.0 6.0 0.00 0.09 0.01 45 1015.7
20260506180504 68 100 2.0 6.0 0.00 0.09 0.01 46 1015.7
20260506180403 68 96 1.0 6.0 0.00 0.09 0.01 47 1015.8
20260506180303 68 93 2.0 6.0 0.00 0.09 0.01 47 1015.7
20260506180204 68 90 2.0 8.0 0.00 0.09 0.01 48 1015.6
20260506180103 67 88 3.0 8.0 0.00 0.09 0.01 47 1015.6
20260506180005 67 87 4.0 8.0 0.00 0.09 0.01 44 1015.7
20260506175904 68 85 3.0 8.0 0.00 0.10 0.01 45 1015.6
20260506175803 68 85 4.0 8.0 0.00 0.10 0.01 44 1015.6
20260506175704 68 85 4.0 8.0 0.00 0.10 0.01 45 1015.6
20260506175603 68 82 4.0 8.0 0.00 0.10 0.01 47 1015.6
20260506175403 68 69 2.0 8.0 0.00 0.10 0.01 46 1015.6
20260506175306 67 57 3.0 8.0 0.00 0.10 0.01 46 1015.6
20260506175203 67 38 4.0 6.0 0.00 0.10 0.01 48 1015.7
20260506175104 67 0 0.0 3.0 0.00 0.10 0.01 49 1015.6
20260506175004 67 0 0.0 3.0 0.00 0.10 0.01 49 1015.7
20260506174905 67 0 0.0 4.0 0.00 0.10 0.01 49 1015.7
20260506174804 67 0 0.0 4.0 0.00 0.10 0.01 49 1015.7
20260506174604 67 0 0.0 4.0 0.00 0.10 0.01 49 1015.6
20260506174304 66 274 1.0 4.0 0.00 0.10 0.01 50 1015.6
20260506174203 66 0 0.0 4.0 0.00 0.10 0.01 50 1015.6
20260506174104 66 252 1.0 4.0 0.00 0.10 0.01 49 1015.6
20260506173804 66 196 2.0 4.0 0.00 0.10 0.01 50 1015.6
20260506173703 66 192 2.0 4.0 0.00 0.10 0.01 51 1015.6
20260506173504 66 194 1.0 4.0 0.00 0.10 0.01 51 1015.7
20260506173403 66 193 2.0 4.0 0.00 0.10 0.01 50 1015.7
20260506173304 65 204 2.0 4.0 0.00 0.10 0.01 52 1015.6
20260506173203 65 207 2.0 4.0 0.00 0.10 0.01 52 1015.6
20260506173104 65 220 2.0 4.0 0.00 0.10 0.01 52 1015.6
20260506173004 65 228 2.0 4.0 0.00 0.10 0.01 52 1015.7
20260506172903 65 232 2.0 4.0 0.00 0.10 0.01 52 1015.6
20260506172804 65 237 1.0 4.0 0.00 0.10 0.01 52 1015.6
20260506172504 65 234 2.0 4.0 0.00 0.10 0.01 52 1015.5
20260506172403 65 233 2.0 4.0 0.00 0.10 0.01 52 1015.6
20260506172306 64 226 2.0 4.0 0.00 0.10 0.01 54 1015.6
20260506172205 64 226 2.0 4.0 0.00 0.10 0.01 54 1015.5
20260506172103 64 226 1.0 4.0 0.00 0.10 0.01 54 1015.6
20260506172004 64 226 2.0 4.0 0.00 0.10 0.01 54 1015.6
20260506171904 64 226 1.0 4.0 0.00 0.10 0.01 55 1015.5
20260506171803 64 0 0.0 4.0 0.00 0.10 0.01 54 1015.5
20260506171704 64 226 1.0 4.0 0.00 0.10 0.01 53 1015.5
20260506171603 64 230 2.0 4.0 0.00 0.10 0.01 53 1015.5
20260506171504 64 232 2.0 5.0 0.00 0.10 0.01 53 1015.5
20260506171403 64 237 1.0 5.0 0.00 0.10 0.01 54 1015.5
20260506171304 64 236 2.0 7.0 0.00 0.10 0.01 54 1015.6
20260506171203 64 240 2.0 7.0 0.00 0.10 0.01 56 1015.6
20260506171103 64 0 0.0 7.0 0.00 0.10 0.01 55 1015.6
20260506170904 64 0 0.0 7.0 0.00 0.10 0.01 55 1015.6
20260506170804 64 240 2.0 7.0 0.00 0.10 0.01 55 1015.5
20260506170704 64 245 1.0 7.0 0.00 0.10 0.01 56 1015.6
20260506170603 64 250 2.0 7.0 0.00 0.10 0.01 55 1015.5
20260506170504 64 249 3.0 7.0 0.00 0.10 0.01 55 1015.6
20260506170403 64 250 3.0 7.0 0.00 0.10 0.01 58 1015.6
20260506170204 63 0 0.0 4.0 0.00 0.10 0.01 56 1015.6
20260506170003 63 251 2.0 4.0 0.00 0.10 0.01 55 1015.5
20260506165904 63 255 2.0 4.0 0.00 0.10 0.01 56 1015.4
20260506165703 63 248 1.0 4.0 0.00 0.10 0.01 55 1015.5
20260506165504 63 0 0.0 4.0 0.00 0.10 0.01 55 1015.5
20260506165403 63 242 2.0 4.0 0.00 0.10 0.01 55 1015.5
20260506165305 63 237 2.0 4.0 0.00 0.10 0.01 55 1015.5
20260506165203 64 226 2.0 4.0 0.00 0.10 0.01 55 1015.6
20260506165104 64 218 2.0 3.0 0.00 0.10 0.01 55 1015.5
20260506165004 64 207 1.0 3.0 0.00 0.10 0.01 56 1015.4
20260506164904 64 188 1.0 3.0 0.00 0.10 0.01 55 1015.4
20260506164804 64 181 1.0 3.0 0.00 0.10 0.01 56 1015.4
20260506164703 64 171 2.0 3.0 0.00 0.10 0.01 56 1015.4
20260506164604 64 0 0.0 3.0 0.00 0.10 0.01 58 1015.5
20260506164504 64 0 0.0 3.0 0.00 0.10 0.01 58 1015.4
20260506164404 64 184 1.0 3.0 0.00 0.10 0.01 59 1015.4
20260506164304 64 191 2.0 3.0 0.00 0.10 0.01 59 1015.4
20260506164203 64 203 2.0 3.0 0.00 0.10 0.01 59 1015.4
20260506164104 63 194 1.0 3.0 0.00 0.10 0.01 59 1015.5
20260506164004 63 195 1.0 3.0 0.00 0.10 0.01 59 1015.4
20260506163904 63 0 0.0 3.0 0.00 0.10 0.01 58 1015.4
20260506163804 63 0 0.0 3.0 0.00 0.10 0.01 58 1015.4
20260506163604 63 157 2.0 3.0 0.00 0.10 0.01 58 1015.4
20260506163504 63 137 1.0 3.0 0.00 0.10 0.01 59 1015.4
20260506163306 63 0 0.0 3.0 0.00 0.10 0.01 60 1015.4
20260506163204 63 123 1.0 3.0 0.00 0.10 0.01 61 1015.4
20260506163004 63 0 0.0 3.0 0.00 0.10 0.01 61 1015.3
20260506162904 62 0 0.0 3.0 0.00 0.10 0.01 61 1015.4
20260506162804 62 0 0.0 3.0 0.00 0.10 0.01 60 1015.4
20260506162704 62 105 1.0 4.0 0.00 0.10 0.01 60 1015.3
20260506162603 62 102 1.0 4.0 0.00 0.10 0.01 61 1015.4
20260506162404 62 0 0.0 4.0 0.00 0.10 0.01 62 1015.3
20260506162306 62 0 0.0 4.0 0.00 0.10 0.01 62 1015.2
20260506162203 62 0 0.0 4.0 0.00 0.10 0.01 63 1015.4
20260506162104 61 0 0.0 4.0 0.00 0.10 0.01 63 1015.3
20260506162005 61 0 0.0 4.0 0.00 0.10 0.01 63 1015.3
20260506161903 61 83 2.0 4.0 0.00 0.10 0.01 63 1015.3
20260506161804 61 83 1.0 4.0 0.00 0.10 0.01 63 1015.4
20260506161703 61 83 2.0 4.0 0.00 0.10 0.01 64 1015.4
20260506161604 60 81 1.0 4.0 0.00 0.10 0.01 65 1015.4
20260506161504 60 76 1.0 4.0 0.00 0.10 0.01 65 1015.2
20260506161404 60 70 2.0 4.0 0.00 0.10 0.01 65 1015.2
20260506161104 60 59 2.0 5.0 0.00 0.10 0.01 64 1015.2
20260506161003 60 62 1.0 5.0 0.00 0.10 0.01 64 1015.2
20260506160904 60 64 2.0 5.0 0.00 0.10 0.01 64 1015.2
20260506160803 60 71 1.0 5.0 0.00 0.10 0.01 65 1015.3
20260506160704 59 0 0.0 5.0 0.00 0.10 0.01 65 1015.2
20260506160503 59 71 1.0 5.0 0.00 0.10 0.01 65 1015.2
20260506160404 59 70 2.0 5.0 0.00 0.10 0.01 65 1015.2
20260506160304 59 66 2.0 5.0 0.00 0.10 0.01 65 1015.1
20260506160203 59 72 2.0 5.0 0.00 0.10 0.01 65 1015.2
20260506160104 59 76 1.0 4.0 0.00 0.10 0.01 67 1015.2
20260506160003 59 74 1.0 4.0 0.00 0.10 0.01 67 1015.2
20260506155904 59 73 1.0 4.0 0.00 0.10 0.01 66 1015.2
20260506155704 59 0 0.0 3.0 0.00 0.10 0.01 67 1015.2
20260506155604 59 79 1.0 3.0 0.00 0.10 0.01 67 1015.3
20260506155504 59 88 1.0 3.0 0.00 0.10 0.01 67 1015.3
20260506155404 59 102 2.0 3.0 0.00 0.10 0.01 68 1015.2
20260506155306 59 0 0.0 3.0 0.00 0.10 0.01 69 1015.2
20260506155104 58 107 1.0 3.0 0.00 0.10 0.01 69 1015.0
20260506155004 58 0 0.0 3.0 0.00 0.10 0.01 69 1015.1
20260506154904 58 0 0.0 3.0 0.00 0.10 0.01 70 1015.1
20260506154803 60 0 0.0 3.0 0.00 0.10 0.01 70 1015.1
20260506154603 57 0 0.0 3.0 0.00 0.10 0.01 71 1015.1
20260506154504 57 0 0.0 3.0 0.00 0.10 0.01 71 1015.0
20260506154404 57 118 1.0 3.0 0.00 0.10 0.01 71 1015.1
20260506154303 57 118 1.0 3.0 0.00 0.10 0.01 71 1015.0
20260506154204 57 106 1.0 3.0 0.00 0.10 0.01 71 1015.3
20260506154104 57 110 2.0 3.0 0.00 0.10 0.01 72 1015.2
20260506154004 57 0 0.0 4.0 0.00 0.10 0.01 73 1015.2
20260506153803 56 0 0.0 4.0 0.00 0.10 0.01 73 1015.1
20260506153704 56 0 0.0 4.0 0.00 0.10 0.01 73 1015.1
20260506153603 56 0 0.0 4.0 0.00 0.10 0.01 74 1015.0
20260506153504 56 0 0.0 4.0 0.00 0.10 0.01 74 1015.0
20260506153404 56 0 0.0 4.0 0.00 0.10 0.01 75 1015.0
20260506153304 56 0 0.0 4.0 0.00 0.10 0.01 75 1015.0
20260506153203 56 95 1.0 4.0 0.00 0.10 0.01 75 1015.0
20260506153104 56 95 2.0 4.0 0.00 0.10 0.01 76 1014.9
20260506152904 56 96 2.0 4.0 0.00 0.10 0.01 76 1015.1
20260506152803 55 93 1.0 4.0 0.00 0.10 0.01 76 1015.0
20260506152704 55 91 2.0 4.0 0.00 0.10 0.01 76 1015.0
20260506152503 55 92 3.0 4.0 0.00 0.10 0.01 77 1014.9
20260506152404 55 92 1.0 4.0 0.00 0.10 0.01 78 1015.0
20260506152203 55 97 2.0 4.0 0.00 0.10 0.01 78 1015.0
20260506152104 55 102 1.0 4.0 0.00 0.10 0.01 78 1015.0
20260506152003 54 0 0.0 4.0 0.00 0.10 0.01 79 1014.9
20260506151904 54 106 2.0 4.0 0.00 0.10 0.01 79 1014.9
20260506151804 54 111 2.0 4.0 0.00 0.10 0.01 80 1015.0
20260506151703 54 0 0.0 4.0 0.00 0.10 0.01 80 1015.0
20260506151505 54 112 2.0 4.0 0.00 0.10 0.01 80 1015.1
20260506151403 54 116 2.0 4.0 0.00 0.10 0.01 81 1015.0
20260506151204 54 126 2.0 4.0 0.00 0.10 0.01 82 1015.1
20260506151104 53 123 2.0 3.0 0.00 0.10 0.01 82 1015.1
20260506150704 53 115 2.0 4.0 0.00 0.10 0.01 83 1015.1
20260506150604 53 112 2.0 4.0 0.00 0.10 0.01 83 1015.0
20260506150504 53 111 1.0 4.0 0.00 0.10 0.01 84 1015.0
20260506150305 53 104 1.0 5.0 0.00 0.10 0.01 84 1014.9
20260506150204 52 98 1.0 5.0 0.00 0.10 0.01 84 1014.9
20260506150104 52 96 2.0 5.0 0.00 0.10 0.01 85 1014.9
20260506150003 52 95 2.0 5.0 0.00 0.10 0.01 85 1014.9
20260506145604 52 98 2.0 5.0 0.00 0.10 0.01 86 1014.9
20260506145503 52 97 2.0 5.0 0.00 0.10 0.01 87 1014.9
20260506145404 51 97 1.0 5.0 0.00 0.10 0.01 87 1014.8
20260506145305 51 96 2.0 5.0 0.00 0.10 0.01 87 1015.0
20260506145204 51 98 2.0 5.0 0.00 0.10 0.01 87 1014.8
20260506145103 51 98 1.0 5.0 0.00 0.10 0.01 88 1014.8
20260506145004 51 99 2.0 5.0 0.00 0.10 0.01 88 1014.8
20260506144903 51 97 1.0 5.0 0.00 0.10 0.01 88 1014.8
20260506144804 51 97 2.0 5.0 0.00 0.10 0.01 88 1014.8
20260506144603 51 97 4.0 5.0 0.00 0.10 0.01 89 1014.8
20260506144504 51 99 3.0 5.0 0.00 0.10 0.01 89 1014.8
20260506144403 50 102 1.0 4.0 0.00 0.10 0.01 90 1014.8
20260506144304 50 101 1.0 4.0 0.00 0.10 0.01 90 1014.9
20260506144204 50 98 1.0 4.0 0.00 0.10 0.01 90 1014.8
20260506144104 50 97 2.0 4.0 0.00 0.10 0.01 90 1014.7
20260506144004 50 97 2.0 4.0 0.00 0.10 0.01 90 1014.8
20260506143903 49 97 2.0 4.0 0.00 0.10 0.01 90 1014.9
20260506143803 49 100 1.0 4.0 0.00 0.10 0.01 90 1014.9
20260506143704 49 98 1.0 4.0 0.00 0.10 0.01 91 1014.8
20260506143603 49 95 1.0 5.0 0.00 0.10 0.01 91 1014.9
20260506143504 49 96 2.0 5.0 0.00 0.10 0.01 91 1014.8
20260506143403 49 97 2.0 5.0 0.00 0.10 0.01 91 1014.8
20260506143003 48 97 2.0 5.0 0.00 0.10 0.01 91 1014.7
20260506142804 48 90 3.0 5.0 0.00 0.10 0.01 91 1014.6
20260506142703 48 90 4.0 5.0 0.00 0.10 0.01 91 1014.6
20260506142604 48 89 3.0 4.0 0.00 0.10 0.01 91 1014.7
20260506142404 47 85 2.0 4.0 0.00 0.10 0.01 92 1014.6
20260506142203 47 84 2.0 4.0 0.00 0.12 0.01 92 1014.6
20260506142104 47 83 2.0 4.0 0.00 0.12 0.01 92 1014.6
20260506142004 47 83 2.0 4.0 0.00 0.12 0.01 92 1014.6
20260506141904 47 82 2.0 3.0 0.00 0.12 0.01 93 1014.6
20260506141804 47 91 2.0 3.0 0.00 0.12 0.01 93 1014.5
20260506141703 47 91 2.0 3.0 0.00 0.12 0.01 93 1014.7
20260506141604 46 94 2.0 3.0 0.00 0.12 0.01 93 1014.5
20260506141504 46 94 1.0 3.0 0.00 0.12 0.01 93 1014.5
20260506141404 46 94 1.0 3.0 0.00 0.12 0.01 93 1014.6
20260506141203 46 0 0.0 3.0 0.00 0.12 0.01 93 1014.5
20260506141104 46 94 1.0 3.0 0.00 0.12 0.01 93 1014.4
20260506141003 45 0 0.0 3.0 0.00 0.13 0.01 93 1014.4
20260506140904 45 94 1.0 3.0 0.00 0.13 0.01 93 1014.4
20260506140803 45 90 2.0 3.0 0.00 0.13 0.01 94 1014.4
20260506140703 44 90 1.0 2.0 0.00 0.13 0.01 94 1014.4
20260506140604 44 90 1.0 2.0 0.00 0.13 0.01 94 1014.3
20260506140504 44 90 1.0 2.0 0.00 0.13 0.01 94 1014.3
20260506140404 44 90 1.0 2.0 0.00 0.13 0.01 94 1014.3
20260506140304 44 90 1.0 2.0 0.00 0.13 0.01 94 1014.3
20260506140204 44 90 1.0 2.0 0.00 0.13 0.01 94 1014.4
20260506140104 44 90 1.0 2.0 0.00 0.13 0.01 94 1014.4
20260506140003 44 93 1.0 2.0 0.00 0.13 0.01 94 1014.3
20260506135905 44 0 0.0 2.0 0.00 0.13 0.01 94 1014.3
20260506135807 44 99 2.0 2.0 0.00 0.13 0.01 94 1014.3
20260506135604 43 0 0.0 2.0 0.00 0.13 0.01 94 1014.3
20260506135403 43 113 1.0 2.0 0.01 0.13 0.01 94 1014.3
20260506135306 43 0 0.0 2.0 0.01 0.13 0.01 94 1014.3
20260506135103 42 0 0.0 2.0 0.01 0.14 0.01 94 1014.2
20260506135004 42 0 0.0 2.0 0.01 0.14 0.01 94 1014.3
20260506134903 42 0 0.0 1.0 0.01 0.14 0.01 94 1014.2
20260506134804 42 0 0.0 1.0 0.01 0.14 0.01 94 1014.2
20260506134504 42 0 0.0 1.0 0.01 0.14 0.01 94 1014.1
20260506134403 41 0 0.0 1.0 0.01 0.14 0.01 94 1014.1
20260506134303 41 0 0.0 1.0 0.01 0.15 0.01 94 1014.2
20260506134204 41 0 0.0 1.0 0.01 0.15 0.01 94 1014.1
20260506134104 41 0 0.0 1.0 0.01 0.15 0.01 94 1014.1
20260506134003 41 0 0.0 2.0 0.01 0.15 0.01 94 1014.1
20260506133804 41 0 0.0 2.0 0.01 0.16 0.01 94 1014.0
20260506133604 41 0 0.0 2.0 0.01 0.16 0.01 94 1014.1
20260506133504 41 0 0.0 2.0 0.01 0.16 0.01 94 1014.0
20260506133403 41 0 0.0 2.0 0.01 0.16 0.01 94 1014.0
20260506133203 40 0 0.0 2.0 0.01 0.16 0.01 94 1014.0
20260506133104 40 0 0.0 2.0 0.01 0.16 0.01 94 1013.9
20260506133003 40 235 1.0 2.0 0.01 0.16 0.01 94 1013.9
20260506132804 40 0 0.0 2.0 0.01 0.16 0.01 94 1013.9
20260506132703 40 0 0.0 2.0 0.01 0.18 0.01 94 1013.9
20260506132604 40 228 1.0 2.0 0.01 0.18 0.01 94 1013.9
20260506132504 40 229 1.0 2.0 0.01 0.18 0.01 94 1013.9
20260506132306 39 0 0.0 1.0 0.01 0.19 0.01 93 1013.9
20260506132204 39 0 0.0 1.0 0.01 0.19 0.01 93 1013.8
20260506132104 39 0 0.0 1.0 0.01 0.19 0.01 93 1013.8
20260506131904 39 0 0.0 1.0 0.01 0.19 0.01 93 1013.8
20260506131804 39 0 0.0 1.0 0.01 0.19 0.01 93 1013.8
20260506131704 39 0 0.0 1.0 0.01 0.19 0.01 93 1013.7
20260506131604 39 0 0.0 1.0 0.01 0.19 0.01 93 1013.7
20260506131504 39 0 0.0 1.0 0.01 0.20 0.01 93 1013.6
20260506131403 39 0 0.0 1.0 0.01 0.20 0.01 93 1013.7
20260506131304 39 0 0.0 1.0 0.01 0.20 0.01 93 1013.7
20260506131203 39 0 0.0 1.0 0.01 0.20 0.01 93 1013.6
20260506131105 39 0 0.0 1.0 0.01 0.20 0.01 93 1013.6
20260506131004 39 0 0.0 1.0 0.01 0.20 0.01 93 1013.7
20260506130904 39 0 0.0 1.0 0.01 0.20 0.01 93 1013.5
20260506130804 39 0 0.0 1.0 0.01 0.20 0.01 92 1013.6
20260506130703 40 0 0.0 0.0 0.01 0.20 0.01 93 1013.6
20260506130604 40 0 0.0 1.0 0.01 0.21 0.01 93 1013.6
20260506130503 40 0 0.0 1.0 0.01 0.21 0.01 93 1013.4
20260506130403 40 0 0.0 1.0 0.01 0.21 0.01 93 1013.5
20260506130304 40 0 0.0 1.0 0.01 0.21 0.01 93 1013.4
20260506130203 40 0 0.0 1.0 0.01 0.21 0.01 93 1013.4
20260506130104 40 0 0.0 1.0 0.01 0.21 0.01 93 1013.4
20260506130004 40 0 0.0 1.0 0.01 0.21 0.01 93 1013.4
20260506125903 40 0 0.0 2.0 0.01 0.21 0.01 93 1013.4
20260506125804 40 0 0.0 2.0 0.01 0.21 0.01 93 1013.4
20260506125603 40 0 0.0 2.0 0.01 0.22 0.01 93 1013.4
20260506125504 40 0 0.0 2.0 0.00 0.21 0.00 93 1013.3
20260506125403 40 0 0.0 2.0 0.00 0.21 0.00 93 1013.3
20260506125305 40 0 0.0 2.0 0.00 0.21 0.00 93 1013.3
20260506125204 40 0 0.0 2.0 0.00 0.21 0.00 93 1013.3
20260506125004 40 0 0.0 2.0 0.00 0.21 0.00 93 1013.3
20260506124803 40 225 1.0 2.0 0.00 0.21 0.00 93 1013.3
20260506124704 40 0 0.0 2.0 0.00 0.21 0.00 93 1013.2
20260506124603 40 0 0.0 2.0 0.00 0.21 0.00 93 1013.2
20260506124504 40 0 0.0 1.0 0.00 0.21 0.00 93 1013.2
20260506124303 40 0 0.0 0.0 0.00 0.22 0.00 93 1013.2
20260506124204 40 0 0.0 0.0 0.00 0.22 0.00 93 1013.1
20260506124104 40 0 0.0 0.0 0.00 0.22 0.00 93 1013.2
20260506123903 41 0 0.0 1.0 0.00 0.22 0.00 92 1013.1
20260506123804 41 0 0.0 1.0 0.00 0.22 0.00 93 1012.9
20260506123703 41 0 0.0 1.0 0.00 0.22 0.00 93 1013.1
20260506123604 41 0 0.0 1.0 0.00 0.22 0.00 93 1013.1
20260506123504 41 0 0.0 1.0 0.00 0.22 0.00 93 1013.1
20260506123204 41 0 0.0 1.0 0.00 0.22 0.00 93 1013.1
20260506123103 41 0 0.0 1.0 0.00 0.22 0.00 93 1013.0
20260506123004 41 0 0.0 1.0 0.00 0.22 0.00 93 1013.0
20260506122903 41 0 0.0 1.0 0.00 0.22 0.00 93 1013.0
20260506122803 41 0 0.0 2.0 0.00 0.22 0.00 93 1013.1
20260506122704 41 0 0.0 2.0 0.00 0.22 0.00 94 1012.9
20260506122605 41 0 0.0 2.0 0.00 0.22 0.00 94 1013.1
20260506122504 41 0 0.0 2.0 0.00 0.22 0.00 94 1013.1
20260506122404 41 0 0.0 2.0 0.00 0.22 0.00 94 1013.0
20260506122306 41 0 0.0 2.0 0.00 0.22 0.00 94 1012.9
20260506122203 41 0 0.0 2.0 0.00 0.22 0.00 94 1013.0
20260506122104 41 0 0.0 2.0 0.00 0.24 0.00 94 1012.9
20260506122003 41 0 0.0 2.0 0.00 0.24 0.00 94 1012.9
20260506121903 41 0 0.0 2.0 0.00 0.24 0.00 93 1012.9
20260506121804 41 135 1.0 2.0 0.00 0.24 0.00 93 1013.0
20260506121703 41 0 0.0 1.0 0.00 0.24 0.00 93 1012.9
20260506121604 41 0 0.0 1.0 0.00 0.24 0.00 93 1012.9
20260506121503 41 0 0.0 1.0 0.00 0.24 0.00 93 1012.9
20260506121404 41 0 0.0 2.0 0.00 0.24 0.00 93 1012.9
20260506121304 41 0 0.0 2.0 0.00 0.24 0.00 93 1013.0
20260506121203 41 0 0.0 2.0 0.00 0.24 0.00 94 1012.9
20260506121104 41 0 0.0 2.0 0.00 0.24 0.00 94 1012.9
20260506120904 41 0 0.0 2.0 0.00 0.24 0.00 94 1012.9
20260506120804 41 0 0.0 2.0 0.00 0.24 0.00 93 1012.9
20260506120704 41 0 0.0 2.0 0.00 0.24 0.00 93 1012.9
20260506120404 41 121 1.0 2.0 0.00 0.25 0.00 93 1012.8
20260506120304 41 118 1.0 2.0 0.00 0.25 0.00 93 1012.8
20260506120203 41 121 1.0 2.0 0.00 0.25 0.00 93 1012.8
20260506120104 41 121 1.0 2.0 0.00 0.25 0.00 93 1012.8
20260506120004 41 122 1.0 2.0 0.00 0.25 0.00 93 1012.8
20260506115904 41 128 1.0 2.0 0.00 0.25 0.00 93 1012.8
20260506115804 41 132 1.0 2.0 0.00 0.25 0.00 93 1012.8
20260506115704 41 127 1.0 2.0 0.00 0.25 0.00 93 1012.7
20260506115603 41 121 1.0 2.0 0.00 0.25 0.00 93 1012.7
20260506115504 41 0 0.0 2.0 0.00 0.25 0.00 93 1012.7
20260506115404 41 112 1.0 2.0 0.00 0.25 0.00 93 1012.7
20260506115306 41 0 0.0 2.0 0.00 0.25 0.00 93 1012.7
20260506115204 41 104 1.0 3.0 0.00 0.25 0.00 93 1012.7
20260506115103 41 99 1.0 3.0 0.00 0.25 0.00 93 1012.7
20260506115004 41 95 1.0 3.0 0.00 0.25 0.00 93 1012.7
20260506114804 41 0 0.0 3.0 0.00 0.25 0.00 93 1012.7
20260506114703 41 0 0.0 3.0 0.00 0.25 0.00 93 1012.8
20260506114504 41 90 1.0 3.0 0.00 0.25 0.00 93 1012.8
20260506114404 41 90 1.0 3.0 0.00 0.25 0.00 92 1012.8
20260506114303 41 90 1.0 3.0 0.00 0.25 0.00 92 1012.7
20260506114204 41 90 2.0 3.0 0.00 0.25 0.00 92 1012.7
20260506114103 41 90 2.0 2.0 0.00 0.25 0.00 92 1012.7
20260506114003 41 90 2.0 2.0 0.00 0.25 0.00 92 1012.6
20260506113904 41 90 2.0 2.0 0.00 0.25 0.00 92 1012.5
20260506113804 41 0 0.0 2.0 0.00 0.25 0.00 92 1012.6
20260506113503 41 90 1.0 2.0 0.00 0.26 0.00 92 1012.7
20260506113404 41 90 1.0 2.0 0.00 0.26 0.00 92 1012.7
20260506113303 41 0 0.0 1.0 0.00 0.26 0.00 92 1012.5
20260506113204 41 0 0.0 1.0 0.00 0.26 0.00 92 1012.5
20260506113104 41 0 0.0 1.0 0.00 0.26 0.00 92 1012.7
20260506113004 41 0 0.0 2.0 0.00 0.26 0.00 92 1012.5
20260506112904 41 0 0.0 2.0 0.00 0.26 0.00 92 1012.5
20260506112803 41 0 0.0 2.0 0.00 0.26 0.00 93 1012.4
20260506112604 41 0 0.0 2.0 0.00 0.26 0.00 93 1012.4
20260506112503 41 0 0.0 2.0 0.00 0.26 0.00 93 1012.4
20260506112403 41 0 0.0 2.0 0.00 0.26 0.00 93 1012.4
20260506112306 41 0 0.0 2.0 0.00 0.27 0.00 93 1012.5
20260506112203 41 0 0.0 2.0 0.00 0.27 0.00 93 1012.4
20260506112104 41 0 0.0 2.0 0.00 0.27 0.00 93 1012.4
20260506112004 41 0 0.0 2.0 0.00 0.27 0.00 93 1012.3
20260506111604 41 0 0.0 2.0 0.00 0.27 0.00 92 1012.4
20260506111503 41 0 0.0 2.0 0.00 0.28 0.00 92 1012.4
20260506111404 41 0 0.0 2.0 0.00 0.28 0.00 92 1012.5
20260506111303 41 0 0.0 2.0 0.00 0.28 0.00 92 1012.4
20260506111104 41 0 0.0 0.0 0.00 0.28 0.00 92 1012.4
20260506110904 41 0 0.0 1.0 0.00 0.28 0.00 92 1012.4
20260506110804 41 0 0.0 1.0 0.00 0.28 0.00 92 1012.4
20260506110703 41 0 0.0 1.0 0.00 0.28 0.00 92 1012.4
20260506110604 41 0 0.0 1.0 0.00 0.28 0.00 92 1012.4
20260506110403 41 0 0.0 1.0 0.00 0.28 0.00 92 1012.4
20260506110304 41 0 0.0 1.0 0.00 0.28 0.00 92 1012.4
20260506110203 41 0 0.0 2.0 0.00 0.28 0.00 92 1012.3
20260506110004 41 0 0.0 2.0 0.00 0.28 0.00 92 1012.3
20260506105904 41 0 0.0 2.0 0.00 0.28 0.00 91 1012.3
20260506105803 41 0 0.0 2.0 0.00 0.28 0.00 91 1012.3
20260506105604 41 0 0.0 2.0 0.00 0.28 0.00 91 1012.4
20260506105404 41 0 0.0 2.0 0.00 0.28 0.00 91 1012.4
20260506105305 41 0 0.0 2.0 0.00 0.28 0.00 91 1012.2
20260506105204 41 82 1.0 2.0 0.00 0.28 0.00 91 1012.2
20260506105103 41 0 0.0 2.0 0.00 0.28 0.00 91 1012.3
20260506105004 41 0 0.0 2.0 0.00 0.28 0.00 91 1012.2
20260506104803 41 0 0.0 2.0 0.00 0.28 0.00 91 1012.3
20260506104704 42 0 0.0 2.0 0.00 0.28 0.00 91 1012.2
20260506104603 42 0 0.0 2.0 0.00 0.28 0.00 91 1012.3
20260506104404 42 118 1.0 2.0 0.00 0.28 0.00 91 1012.2
20260506104303 42 0 0.0 1.0 0.00 0.28 0.00 91 1012.2
20260506104204 42 0 0.0 1.0 0.00 0.28 0.00 91 1012.2
20260506104104 42 0 0.0 1.0 0.00 0.28 0.00 91 1012.1
20260506104003 42 0 0.0 1.0 0.00 0.28 0.00 91 1012.1
20260506103904 42 0 0.0 1.0 0.00 0.28 0.00 91 1012.3
20260506103604 42 0 0.0 2.0 0.00 0.28 0.00 91 1012.2
20260506103404 42 0 0.0 2.0 0.00 0.28 0.00 91 1012.0
20260506103304 42 0 0.0 2.0 0.00 0.28 0.00 91 1012.2
20260506103103 42 0 0.0 2.0 0.00 0.28 0.00 91 1012.0
20260506103004 42 0 0.0 2.0 0.00 0.28 0.00 91 1012.0
20260506102903 42 0 0.0 2.0 0.00 0.28 0.00 91 1012.1
20260506102804 42 0 0.0 2.0 0.00 0.28 0.00 91 1012.0
20260506102603 42 0 0.0 2.0 0.00 0.28 0.00 91 1012.1
20260506102504 42 0 0.0 2.0 0.00 0.28 0.00 91 1012.0
20260506102403 42 0 0.0 2.0 0.00 0.28 0.00 91 1012.1
20260506102204 42 170 1.0 2.0 0.00 0.28 0.00 91 1012.0
20260506102104 42 0 0.0 2.0 0.00 0.28 0.00 91 1011.9
20260506102004 43 0 0.0 2.0 0.00 0.28 0.00 91 1011.9
20260506101903 43 0 0.0 2.0 0.00 0.28 0.00 91 1012.0
20260506101803 43 155 1.0 2.0 0.00 0.28 0.00 91 1011.9
20260506101704 43 147 1.0 2.0 0.00 0.28 0.00 91 1011.9
20260506101603 43 0 0.0 2.0 0.00 0.28 0.00 92 1011.9
20260506101503 43 0 0.0 2.0 0.00 0.28 0.00 91 1011.9
20260506101404 43 0 0.0 2.0 0.00 0.28 0.00 91 1011.9
20260506101303 43 0 0.0 2.0 0.00 0.28 0.00 91 1011.9
20260506101204 43 135 2.0 2.0 0.00 0.28 0.00 91 1011.9
20260506101104 43 135 1.0 2.0 0.00 0.28 0.00 91 1011.9
20260506100904 43 135 1.0 2.0 0.00 0.28 0.00 91 1011.9
20260506100704 43 0 0.0 2.0 0.00 0.28 0.00 91 1011.9
20260506100503 43 0 0.0 2.0 0.00 0.28 0.00 91 1011.8
20260506100404 43 0 0.0 2.0 0.00 0.28 0.00 91 1011.9
20260506100303 43 0 0.0 2.0 0.00 0.28 0.00 91 1011.9
20260506100204 43 0 0.0 2.0 0.00 0.28 0.00 91 1011.9
20260506100103 43 0 0.0 2.0 0.00 0.28 0.00 91 1011.9
20260506100003 43 0 0.0 2.0 0.00 0.28 0.00 91 1011.8
20260506095904 43 0 0.0 2.0 0.00 0.28 0.00 91 1011.8
20260506095803 43 0 0.0 2.0 0.00 0.28 0.00 91 1011.8
20260506095703 43 0 0.0 2.0 0.00 0.28 0.00 91 1011.8
20260506095604 43 0 0.0 2.0 0.00 0.28 0.00 91 1011.8
20260506095404 43 0 0.0 2.0 0.00 0.28 0.00 91 1011.7
20260506095305 43 0 0.0 2.0 0.00 0.28 0.00 91 1011.8
20260506095204 43 0 0.0 2.0 0.00 0.28 0.00 91 1011.8
20260506095003 43 0 0.0 2.0 0.00 0.28 0.00 91 1011.7
20260506094904 43 0 0.0 2.0 0.00 0.28 0.00 90 1011.7
20260506094804 43 0 0.0 2.0 0.00 0.28 0.00 90 1011.7
20260506094703 43 0 0.0 2.0 0.00 0.28 0.00 90 1011.6
20260506094604 43 0 0.0 2.0 0.00 0.28 0.00 90 1011.6
20260506094503 43 0 0.0 2.0 0.00 0.28 0.00 90 1011.7
20260506094404 43 0 0.0 2.0 0.00 0.28 0.00 90 1011.6
20260506094203 43 0 0.0 2.0 0.00 0.28 0.00 90 1011.6
20260506094104 43 90 1.0 2.0 0.00 0.28 0.00 90 1011.6
20260506093903 43 0 0.0 2.0 0.00 0.28 0.00 90 1011.6
20260506093703 43 90 2.0 2.0 0.00 0.28 0.00 90 1011.6
20260506093603 43 90 2.0 2.0 0.00 0.28 0.00 90 1011.5
20260506093504 43 90 1.0 2.0 0.00 0.28 0.00 90 1011.5
20260506093403 43 0 0.0 2.0 0.00 0.28 0.00 90 1011.6
20260506093204 43 0 0.0 2.0 0.00 0.28 0.00 90 1011.6
20260506093103 43 90 1.0 2.0 0.00 0.28 0.00 90 1011.6
20260506093003 43 0 0.0 2.0 0.00 0.28 0.00 90 1011.5
20260506092904 43 0 0.0 2.0 0.00 0.28 0.00 90 1011.5
20260506092804 43 0 0.0 2.0 0.00 0.28 0.00 90 1011.5
20260506092704 43 0 0.0 2.0 0.00 0.28 0.00 90 1011.4
20260506092604 43 90 1.0 2.0 0.00 0.28 0.00 90 1011.5
20260506092503 43 90 2.0 2.0 0.00 0.28 0.00 90 1011.5
20260506092404 43 90 1.0 2.0 0.00 0.28 0.00 90 1011.5
20260506092305 43 91 1.0 2.0 0.00 0.28 0.00 90 1011.6
20260506092204 43 95 1.0 2.0 0.00 0.28 0.00 90 1011.6
20260506092104 43 0 0.0 2.0 0.00 0.28 0.00 89 1011.5
20260506092003 43 102 1.0 2.0 0.00 0.28 0.00 89 1011.5
20260506091904 43 0 0.0 2.0 0.00 0.28 0.00 89 1011.4
20260506091803 43 0 0.0 2.0 0.00 0.28 0.00 89 1011.4
20260506091704 43 0 0.0 2.0 0.00 0.28 0.00 89 1011.4
20260506091604 43 0 0.0 2.0 0.00 0.28 0.00 89 1011.4
20260506091503 43 0 0.0 2.0 0.00 0.28 0.00 89 1011.4
20260506091403 43 0 0.0 2.0 0.00 0.28 0.00 89 1011.4
20260506091304 43 0 0.0 2.0 0.00 0.28 0.00 89 1011.3
20260506091204 43 0 0.0 2.0 0.00 0.28 0.00 89 1011.3
20260506091104 43 0 0.0 2.0 0.00 0.28 0.00 89 1011.3
20260506091003 43 0 0.0 2.0 0.00 0.28 0.00 89 1011.3
20260506090904 43 0 0.0 2.0 0.00 0.28 0.00 89 1011.3
20260506090804 43 0 0.0 2.0 0.00 0.28 0.00 89 1011.4
20260506090704 44 0 0.0 1.0 0.00 0.28 0.00 89 1011.3
20260506090604 44 0 0.0 1.0 0.00 0.28 0.00 89 1011.3
20260506090404 44 0 0.0 2.0 0.00 0.28 0.00 89 1011.3
20260506090303 44 0 0.0 2.0 0.00 0.28 0.00 89 1011.3
20260506090203 44 0 0.0 2.0 0.00 0.28 0.00 89 1011.4
20260506090104 44 0 0.0 2.0 0.00 0.28 0.00 89 1011.4
20260506090003 44 0 0.0 2.0 0.00 0.28 0.00 89 1011.3
20260506085804 44 0 0.0 2.0 0.00 0.28 0.00 89 1011.4
20260506085703 44 0 0.0 2.0 0.00 0.28 0.00 89 1011.3
20260506085604 44 0 0.0 2.0 0.00 0.28 0.00 89 1011.3
20260506085504 44 0 0.0 2.0 0.00 0.28 0.00 89 1011.4
20260506085404 44 109 1.0 2.0 0.00 0.28 0.00 88 1011.4
20260506085306 44 121 1.0 2.0 0.00 0.28 0.00 88 1011.4
20260506085204 44 0 0.0 2.0 0.00 0.28 0.00 88 1011.3
20260506084903 44 0 0.0 2.0 0.00 0.28 0.00 88 1011.4
20260506084804 44 0 0.0 2.0 0.00 0.28 0.00 88 1011.4
20260506084703 44 0 0.0 2.0 0.00 0.28 0.00 88 1011.3
20260506084604 44 0 0.0 2.0 0.00 0.28 0.00 88 1011.4
20260506084504 44 0 0.0 2.0 0.00 0.28 0.00 88 1011.4
20260506084403 44 0 0.0 2.0 0.00 0.28 0.00 87 1011.4
20260506084204 44 0 0.0 2.0 0.00 0.28 0.00 87 1011.5
20260506084003 44 0 0.0 2.0 0.00 0.28 0.00 87 1011.4
20260506083904 44 0 0.0 2.0 0.00 0.28 0.00 87 1011.4
20260506083803 44 0 0.0 2.0 0.00 0.28 0.00 87 1011.4
20260506083704 44 0 0.0 2.0 0.00 0.28 0.00 87 1011.4
20260506083604 44 0 0.0 2.0 0.00 0.28 0.00 87 1011.4
20260506083503 45 0 0.0 2.0 0.00 0.28 0.00 87 1011.4
20260506083404 45 0 0.0 2.0 0.00 0.28 0.00 87 1011.3
20260506083303 45 0 0.0 2.0 0.00 0.28 0.00 87 1011.4
20260506083204 45 0 0.0 2.0 0.00 0.28 0.00 86 1011.4
20260506083103 45 102 1.0 2.0 0.00 0.28 0.00 86 1011.3
20260506083003 45 107 1.0 2.0 0.00 0.28 0.00 86 1011.3
20260506082904 45 107 1.0 2.0 0.00 0.28 0.00 86 1011.3
20260506082803 46 0 0.0 2.0 0.00 0.28 0.00 87 1011.4
20260506082704 46 0 0.0 1.0 0.00 0.28 0.00 87 1011.4
20260506082603 46 0 0.0 1.0 0.00 0.28 0.00 87 1011.4
20260506082503 46 0 0.0 1.0 0.00 0.28 0.00 86 1011.4
20260506082404 46 0 0.0 1.0 0.00 0.28 0.00 86 1011.4
20260506082305 46 0 0.0 1.0 0.00 0.28 0.00 86 1011.4
20260506082204 46 0 0.0 1.0 0.00 0.28 0.00 86 1011.4
20260506082104 46 0 0.0 1.0 0.00 0.28 0.00 86 1011.4
20260506081904 46 0 0.0 4.0 0.00 0.28 0.00 86 1011.4
20260506081804 46 0 0.0 4.0 0.00 0.28 0.00 86 1011.5
20260506081703 46 0 0.0 4.0 0.00 0.28 0.00 86 1011.4
20260506081404 47 0 0.0 4.0 0.00 0.28 0.00 87 1011.4
20260506081305 47 0 0.0 4.0 0.00 0.28 0.00 87 1011.3
20260506081104 46 294 1.0 4.0 0.00 0.28 0.00 87 1011.3
20260506081003 46 302 2.0 4.0 0.00 0.28 0.00 87 1011.2
20260506080904 46 304 2.0 4.0 0.00 0.28 0.00 87 1011.2
20260506080804 46 0 0.0 4.0 0.00 0.28 0.00 87 1011.3
20260506080703 46 302 3.0 4.0 0.00 0.28 0.00 86 1011.3
20260506080604 46 297 3.0 4.0 0.00 0.28 0.00 86 1011.3
20260506080503 46 293 3.0 4.0 0.00 0.28 0.00 86 1011.5
20260506080404 46 287 3.0 5.0 0.00 0.28 0.00 86 1011.4
20260506080304 46 284 3.0 5.0 0.00 0.28 0.00 86 1011.3
20260506080203 46 278 3.0 5.0 0.00 0.28 0.00 86 1011.3
20260506080104 46 273 3.0 5.0 0.00 0.28 0.00 86 1011.3
20260506073504 47 0 0.0 2.0 0.00 0.28 0.00 82 1011.0
20260506073403 47 0 0.0 2.0 0.00 0.28 0.00 82 1011.0
20260506073304 47 0 0.0 2.0 0.00 0.28 0.00 82 1011.0
20260506073203 48 0 0.0 2.0 0.00 0.28 0.00 82 1011.0
20260506073104 47 0 0.0 2.0 0.00 0.28 0.00 82 1010.9
20260506073004 48 0 0.0 2.0 0.00 0.28 0.00 82 1011.0
20260506072903 48 0 0.0 4.0 0.00 0.28 0.00 82 1010.9
20260506072804 48 0 0.0 4.0 0.00 0.28 0.00 82 1010.9
20260506072703 48 0 0.0 4.0 0.00 0.28 0.00 82 1010.9
20260506072604 48 0 0.0 4.0 0.00 0.28 0.00 82 1010.8
20260506072504 48 0 0.0 4.0 0.00 0.28 0.00 82 1010.9
20260506072404 48 0 0.0 4.0 0.00 0.28 0.00 82 1010.8
20260506072305 48 0 0.0 4.0 0.00 0.28 0.00 82 1010.8
20260506072204 48 0 0.0 4.0 0.00 0.28 0.00 82 1010.8
20260506072104 48 0 0.0 4.0 0.00 0.28 0.00 82 1010.8
20260506072004 48 65 2.0 4.0 0.00 0.28 0.00 82 1010.8
20260506071903 48 55 2.0 3.0 0.00 0.28 0.00 81 1010.9
20260506071804 48 49 2.0 3.0 0.00 0.28 0.00 81 1010.7
20260506071604 48 63 1.0 2.0 0.00 0.28 0.00 81 1010.8
20260506071504 48 0 0.0 2.0 0.00 0.28 0.00 80 1010.8
20260506071403 49 0 0.0 2.0 0.00 0.28 0.00 81 1010.8
20260506071304 49 0 0.0 2.0 0.00 0.28 0.00 80 1010.8
20260506071204 49 0 0.0 2.0 0.00 0.28 0.00 80 1010.8
20260506071103 49 0 0.0 2.0 0.00 0.28 0.00 80 1010.8
20260506071004 49 0 0.0 2.0 0.00 0.28 0.00 80 1010.9
20260506070904 49 0 0.0 2.0 0.00 0.28 0.00 80 1010.8
20260506070804 49 0 0.0 2.0 0.00 0.28 0.00 80 1010.8
20260506070705 49 136 1.0 2.0 0.00 0.28 0.00 79 1010.8
20260506070603 49 132 1.0 2.0 0.00 0.28 0.00 79 1010.8
20260506070403 49 128 1.0 2.0 0.00 0.28 0.00 79 1010.7
20260506070304 49 131 1.0 3.0 0.00 0.28 0.00 79 1010.7
20260506070103 49 141 1.0 4.0 0.00 0.28 0.00 79 1010.8
20260506062504 49 123 2.0 5.0 0.00 0.28 0.28 79 1010.9
20260506062404 49 0 0.0 5.0 0.01 0.28 0.28 79 1011.0
20260506062305 49 0 0.0 5.0 0.01 0.28 0.28 79 1010.9
20260506062204 49 114 1.0 5.0 0.01 0.28 0.28 79 1010.9
20260506062103 50 110 2.0 5.0 0.02 0.28 0.28 79 1010.8
20260506061904 50 102 2.0 5.0 0.04 0.28 0.28 79 1010.8
20260506061603 50 109 1.0 5.0 0.08 0.28 0.28 78 1010.7
20260506061503 50 0 0.0 5.0 0.08 0.28 0.28 78 1010.8
20260506061404 50 0 0.0 5.0 0.08 0.28 0.28 78 1010.7
20260506061303 50 185 2.0 5.0 0.08 0.28 0.28 78 1010.8
20260506061204 50 200 1.0 5.0 0.08 0.28 0.28 78 1010.8
20260506061103 50 210 1.0 5.0 0.08 0.28 0.28 78 1010.8
20260506061004 50 216 2.0 8.0 0.08 0.28 0.28 78 1010.7
20260506060904 51 212 1.0 8.0 0.08 0.28 0.28 78 1010.8
20260506060703 51 220 3.0 14.0 0.08 0.28 0.28 78 1010.6
20260506060604 51 221 3.0 16.0 0.08 0.28 0.28 78 1010.7
20260506060403 51 222 3.0 16.0 0.08 0.28 0.28 78 1010.7
20260506060304 51 223 3.0 16.0 0.08 0.28 0.28 78 1010.7
20260506051304 56 69 14.0 16.0 0.00 0.22 0.20 68 1011.6
20260506051103 56 73 11.0 15.0 0.00 0.22 0.20 69 1011.4
20260506051004 56 80 8.0 13.0 0.00 0.22 0.20 68 1011.1
20260506050904 56 86 7.0 10.0 0.00 0.22 0.20 67 1010.9
20260506050803 55 92 6.0 8.0 0.00 0.22 0.20 67 1010.4
20260506050704 54 92 4.0 8.0 0.00 0.22 0.20 70 1010.1
20260506050503 54 92 4.0 8.0 0.00 0.22 0.20 70 1010.0
20260506050404 54 92 4.0 8.0 0.00 0.22 0.20 70 1009.8
20260506050303 54 92 4.0 8.0 0.00 0.22 0.20 70 1009.9
20260506050204 54 92 4.0 8.0 0.00 0.22 0.20 70 1009.8
20260506050104 54 93 4.0 8.0 0.00 0.22 0.20 70 1009.8
20260506045104 54 108 2.0 7.0 0.00 0.22 0.20 70 1009.5
20260506044904 54 92 2.0 8.0 0.00 0.22 0.20 70 1009.6
20260506044804 54 85 2.0 8.0 0.00 0.23 0.20 70 1009.6
20260506044703 54 84 3.0 8.0 0.00 0.23 0.20 71 1009.6
20260506044604 54 83 4.0 8.0 0.00 0.23 0.20 71 1009.7
20260506044504 54 83 4.0 8.0 0.00 0.23 0.20 71 1009.6
20260506044404 54 83 4.0 8.0 0.00 0.23 0.20 71 1009.6
20260506044304 54 83 4.0 8.0 0.00 0.23 0.20 71 1009.5
20260506044203 54 86 4.0 8.0 0.00 0.23 0.20 71 1009.5
20260506044104 54 86 4.0 8.0 0.00 0.23 0.20 71 1009.5
20260506044004 54 85 5.0 8.0 0.00 0.23 0.20 71 1009.6
20260506043804 54 92 5.0 8.0 0.00 0.23 0.20 71 1009.5
20260506043703 54 99 5.0 8.0 0.00 0.23 0.20 70 1009.5
20260506043604 54 103 4.0 6.0 0.00 0.23 0.20 70 1009.4
20260506043503 54 106 4.0 6.0 0.00 0.23 0.20 70 1009.5
20260506043403 54 109 4.0 6.0 0.00 0.23 0.20 70 1009.4
20260506043103 54 118 4.0 5.0 0.00 0.23 0.20 68 1009.3
20260506043004 54 126 3.0 5.0 0.00 0.23 0.20 68 1009.3
20260506042903 54 132 2.0 4.0 0.00 0.23 0.20 67 1009.4
20260506042804 54 133 2.0 4.0 0.00 0.23 0.20 67 1009.3
20260506042504 54 136 2.0 4.0 0.00 0.24 0.20 66 1009.2
20260506042403 54 138 2.0 4.0 0.00 0.24 0.20 65 1009.1
20260506042204 54 137 2.0 4.0 0.00 0.24 0.20 65 1009.2
20260506042103 54 141 2.0 4.0 0.00 0.24 0.20 65 1009.2
20260506041904 54 0 0.0 2.0 0.00 0.24 0.20 65 1009.1
20260506041803 54 0 0.0 2.0 0.00 0.24 0.20 65 1009.0
20260506041704 54 0 0.0 2.0 0.00 0.24 0.20 65 1009.0
20260506041603 54 0 0.0 2.0 0.00 0.24 0.20 65 1008.9
20260506041503 55 154 1.0 2.0 0.00 0.24 0.20 65 1009.1
20260506041404 55 0 0.0 2.0 0.00 0.24 0.20 65 1008.9
20260506041204 55 194 1.0 2.0 0.00 0.24 0.20 64 1009.0
20260506041104 55 0 0.0 2.0 0.00 0.24 0.20 64 1009.1
20260506040904 55 224 1.0 2.0 0.00 0.24 0.20 64 1009.1
20260506040804 56 0 0.0 2.0 0.00 0.24 0.20 63 1009.0
20260506040703 56 0 0.0 2.0 0.00 0.24 0.20 63 1009.0
20260506040604 56 0 0.0 2.0 0.00 0.24 0.20 63 1009.0
20260506040503 56 0 0.0 3.0 0.00 0.24 0.20 63 1009.0
20260506040403 56 0 0.0 3.0 0.00 0.24 0.20 63 1009.0
20260506040304 56 0 0.0 4.0 0.00 0.24 0.20 63 1009.0
20260506040203 56 0 0.0 4.0 0.00 0.24 0.20 63 1009.0
20260506035903 56 127 1.0 4.0 0.00 0.24 0.20 63 1009.1
20260506035804 56 0 0.0 4.0 0.00 0.24 0.20 63 1009.1
20260506035704 56 0 0.0 4.0 0.00 0.24 0.20 62 1008.9
20260506035603 56 121 1.0 4.0 0.00 0.24 0.20 62 1008.9
20260506035504 56 128 1.0 4.0 0.00 0.24 0.20 62 1008.9
20260506035403 56 127 2.0 4.0 0.00 0.24 0.20 62 1009.0
20260506035306 56 132 1.0 4.0 0.00 0.24 0.20 62 1008.9
20260506035204 56 126 1.0 4.0 0.00 0.24 0.20 61 1008.9
20260506035104 56 126 1.0 4.0 0.00 0.24 0.20 61 1008.9
20260506034903 57 127 1.0 4.0 0.00 0.24 0.20 61 1008.9
20260506034804 57 124 1.0 4.0 0.00 0.24 0.20 61 1009.0
20260506034703 57 123 1.0 4.0 0.00 0.24 0.20 61 1008.9
20260506034604 57 128 1.0 4.0 0.00 0.24 0.20 61 1008.9
20260506034503 57 131 1.0 4.0 0.00 0.24 0.20 61 1008.9
20260506034404 57 127 2.0 5.0 0.00 0.24 0.20 60 1008.9
20260506034304 57 120 2.0 5.0 0.00 0.24 0.20 60 1008.9
20260506034203 57 124 2.0 5.0 0.00 0.24 0.20 60 1008.9
20260506034104 57 130 2.0 5.0 0.00 0.24 0.20 60 1008.8
20260506034004 57 127 2.0 5.0 0.00 0.24 0.20 60 1008.9
20260506033904 57 133 2.0 5.0 0.00 0.24 0.20 60 1008.8
20260506033804 57 136 2.0 5.0 0.00 0.24 0.20 60 1008.9
20260506033704 57 136 1.0 5.0 0.00 0.24 0.20 60 1008.8
20260506033504 57 128 2.0 5.0 0.00 0.24 0.20 60 1008.8
20260506033404 57 126 2.0 5.0 0.00 0.24 0.20 60 1008.7
20260506033203 57 133 2.0 4.0 0.00 0.24 0.20 60 1008.7